This demonstration page uses our WeatherBlox Daily Observations layout. Learn more.

Left ArrowRight Arrow

38.20091, -84.87328

Hourly Observations for August 3, 2016

Temp ( °F °C ) Dew Point ( °F °C ) Humidity (%) Winds ( mph kmh ) Pressure ( in mb ) Visibility ( mi km ) Precip ( " mm )
12:53 am 00:53 Clear with Mist and Fog 74 23.3 70 21.1 88 88 Calm 30.03 1017 6 10 0.00 0.00
1:53 am 01:53 Clear 74 23.3 70 21.1 88 88 Calm 30.01 1016 7 11 0.00 0.00
2:53 am 02:53 Clear with Mist and Fog 72 22.2 69 20.6 91 91 Calm 30.01 1016 6 10 0.00 0.00
3:53 am 03:53 Clear with Mist and Fog 73 22.8 69 20.6 87 87 Calm 30.01 1016 6 10 0.00 0.00
4:53 am 04:53 Clear with Mist and Fog 73 22.8 69 20.6 87 87 Calm 30.00 1016 5 8 0.00 0.00
5:53 am 05:53 Clear with Mist and Fog 71 21.7 68 20 90 90 Calm 30.01 1016 6 10 0.00 0.00
6:53 am 06:53 Sunny with Mist and Fog 70 21.1 67 19.4 90 90 Calm 30.01 1016 3 5 0.00 0.00
7:02 am 07:02 Sunny with Mist and Fog 71 21.7 68 20 90 90 Calm 30.00 1016 3 4 0.00 0.00
7:36 am 07:36 Sunny with Mist and Fog 72 22.2 70 21.1 94 94 Calm 30.03 1017 3 5 0.00 0.00
7:53 am 07:53 Sunny with Mist and Fog 74 23.3 70 21.1 88 88 Calm 30.02 1017 4 6 0.00 0.00
8:53 am 08:53 Sunny 78 25.6 71 21.7 79 79 Calm 30.04 1017 9 14 0.00 0.00
9:53 am 09:53 Sunny 81 27.2 71 21.7 72 72 Calm 30.04 1017 10 16 0.00 0.00
10:53 am 10:53 Sunny 85 29.4 70 21.1 61 61 Calm 30.04 1017 10 16 0.00 0.00
11:53 am 11:53 Mostly Sunny 85 29.4 68 20 57 57 NNE 5 7 30.03 1017 10 16 0.00 0.00
12:53 pm 12:53 Cloudy 88 31.1 68 20 52 52 NNW 5 7 30.02 1017 10 16 0.00 0.00
1:53 pm 13:53 Cloudy 90 32.2 69 20.6 50 50 Calm 30.01 1016 10 16 0.00 0.00
2:53 pm 14:53 Mostly Sunny 89 31.7 68 20 50 50 Calm 29.99 1016 10 16 0.00 0.00
3:53 pm 15:53 Mostly Sunny 92 33.3 66 18.9 43 43 Calm 29.97 1015 10 16 0.00 0.00
4:53 pm 16:53 Mostly Cloudy 87 30.6 67 19.4 51 51 W 3 6 29.97 1015 10 16 0.00 0.00
5:53 pm 17:53 Sunny 90 32.2 66 18.9 45 45 NW 3 6 29.96 1015 10 16 0.00 0.00
6:53 pm 18:53 Cloudy 90 32.2 67 19.4 47 47 Calm 29.96 1015 10 16 0.00 0.00
7:53 pm 19:53 Mostly Cloudy 83 28.3 68 20 61 61 S 9 15 29.95 1014 10 16 0.00 0.00
8:33 pm 20:33 Cloudy with Rain 79 26.1 68 20 69 69 NW 5 7 29.97 1015 3 4 0.07 1.78
8:43 pm 20:43 Cloudy with Light Rain 76 24.4 70 21.1 82 82 NW 6 9 29.97 1015 5 8 0.08 2.03
8:53 pm 20:53 Cloudy with Rain 75 23.9 70 21.1 84 84 NNW 7 11 29.97 1015 5 8 0.09 2.29
9:53 pm 21:53 Cloudy with Light Rain 76 24.4 70 21.1 82 82 Calm 29.97 1015 7 11 0.03 0.76
10:53 pm 22:53 Cloudy 77 25 71 21.7 82 82 NE 7 11 29.97 1015 7 11 0.00 0.03
11:53 pm 23:53 Cloudy 76 24.4 72 22.2 88 88 Calm 29.96 1015 7 11 0.00 0.00

Powered by AerisWeather